www.pogodaiklimat.ru

Погода и климат >> Архив погоды >> Австралия >> Camooweal Township


ПОГОДА в Camooweal Township

  • Прогноз погоды в Camooweal Township
  • Монитор погоды в Camooweal Township
  • Климат города

АРХИВ ПОГОДЫ в Camooweal Township

Время (UTC), дата Ветер
(напр.,м/с)
 
Видим.   Явления Облачность Т
(С)
Тd
(С)
f
(%)
Тe
(С)
Тes
(С)
Комфортность P
(гПа)
Po
(гПа)
Тmin
(С)
Tmax
(С)
R
(мм)
R24
(мм)
S
(см)
17 10.10 В 3 н/о н/о +24.4 +9.2 38 +25 +25 комфорт 1010.2 984.2
18 10.10 ЮВ 2 н/о н/о +22.7 +7.7 38 +24 +24 комфорт 1010.1 984.1
20 10.10 Ю 2 н/о н/о +23.1 +9.8 43 +25 +25 комфорт 1011.4 985.3
21 10.10 ЮВ 5 н/о н/о +25.7 +8.7 34 +26 +26 жарко 1012.1 986.0
23 10.10 ЮВ 6 н/о н/о +29.0 +6.4 24 +28 +28 жарко 1013.7 987.6
00 11.10 ЮВ 6 н/о н/о +31.7 +6.7 21 +30 +30 жарко 1013.8 987.7
02 11.10 Ю 7 н/о н/о +30.6 +6.5 22 +29 +29 жарко 1013.4 987.3 +22.1
03 11.10 ЮВ 8 н/о н/о +31.6 +5.9 20 +30 +30 жарко 1012.3 986.2
05 11.10 З 9 н/о туман местами н/о +23.6 +14.9 58 +26 +26 жарко 1014.5 988.4
06 11.10 З 11 н/о н/о +23.5 +10.2 43 +25 +25 комфорт 1014.8 988.6
08 11.10 В 5 н/о туман местами н/о +19.2 +15.3 78 +20 +20 1011.9 985.8
09 11.10 Ю 3 н/о н/о +19.6 +15.3 76 +22 +22 комфорт 1012.8 986.7
11 11.10 ЮЗ 3 н/о {туман} н/о +19.9 +13.4 66 +22 +22 комфорт 1014.4 988.3
12 11.10 Ю 3 н/о н/о +19.9 +12.4 62 +22 +22 комфорт 1014.3 988.2
14 11.10 Ю 2 н/о н/о +18.9 +12.4 66 +21 +21 комфорт 1013.9 987.8 +32.2
15 11.10 ЮЗ 2 н/о н/о +17.8 +12.3 70 +18 +18 1013.4 987.3
17 11.10 ЮЗ 3 н/о н/о +16.1 +11.9 76 +16 +16 1012.2 986.1
18 11.10 Ю 2 н/о н/о +16.2 +10.5 69 +17 +17 1012.2 986.1
20 11.10 штиль 0 н/о н/о +16.2 +10.7 70 +16 +16 1012.8 986.7
21 11.10 ЮЗ 1 н/о н/о +15.5 +10.5 72 +17 +17 1013.4 987.3
23 11.10 ЮВ 4 н/о н/о +26.2 +5.2 26 +25 +25 комфорт 1014.7 988.5
00 12.10 ЮВ 4 н/о н/о +29.4 +5.5 22 +28 +28 жарко 1014.3 988.2
02 12.10 ЮЗ 3 н/о н/о +30.9 +6.0 21 +29 +29 жарко 1012.9 986.8 +14.8
03 12.10 Ю 4 н/о н/о +33.1 +6.4 19 +31 +31 жарко 1011.5 985.4
05 12.10 З 3 н/о н/о +34.8 +7.0 18 +33 +33 жарко 1009.3 983.3
06 12.10 ЮЗ 4 н/о н/о +33.9 +5.4 17 +32 +32 жарко 1008.7 982.7
08 12.10 ЮЗ 3 н/о н/о +32.9 +5.5 18 +31 +31 жарко 1008.4 982.4
09 12.10 ЮЗ 4 н/о н/о +30.7 +5.2 20 +29 +29 жарко 1009.1 983.1
11 12.10 Ю 4 н/о н/о +27.8 +4.8 23 +27 +27 жарко 1010.4 984.4
12 12.10 Ю 3 н/о н/о +25.2 +4.3 26 +25 +25 комфорт 1011.2 985.1
14 12.10 Ю 4 н/о н/о +25.3 +3.9 25 +24 +24 комфорт 1011.1 985.0 +35.2
15 12.10 Ю 2 н/о н/о +22.7 +3.8 29 +23 +23 комфорт 1010.9 984.8
17 12.10 В 3 н/о н/о +21.8 +3.5 30 +22 +22 комфорт 1010.1 984.1
18 12.10 В 3 н/о н/о +21.8 +3.5 30 +22 +22 комфорт 1010.0 984.0
20 12.10 В 3 н/о н/о +20.8 +3.5 32 +22 +22 комфорт 1011.3 985.2
21 12.10 В 2 н/о н/о +22.4 +3.5 29 +22 +22 комфорт 1011.7 985.6
23 12.10 В 5 н/о н/о +31.1 +2.3 16 +29 +29 жарко 1012.3 986.2
00 13.10 В 4 н/о н/о +32.8 +2.8 15 +30 +30 жарко 1011.8 985.7
02 13.10 З 3 н/о н/о +34.5 +3.1 14 +32 +32 жарко 1010.4 984.4 +19.8
03 13.10 СЗ 3 н/о н/о +35.5 +2.9 13 +32 +32 жарко 1009.3 983.3
05 13.10 З 2 н/о н/о +37.3 +3.1 12 +34 +34 очень
жарко
1007.3 981.3
06 13.10 СЗ 3 н/о н/о +36.9 +2.8 12 +34 +34 очень
жарко
1006.7 980.8
08 13.10 З 2 н/о н/о +35.8 +3.1 13 +33 +33 жарко 1007.1 981.1
09 13.10 ЮЗ 3 н/о н/о +32.8 +2.8 15 +30 +30 жарко 1007.7 981.7
11 13.10 ЮЗ 2 н/о н/о +28.7 +2.8 19 +27 +27 жарко 1009.0 983.0
12 13.10 Ю 3 н/о н/о +27.5 +2.6 20 +26 +26 жарко 1009.6 983.6
14 13.10 ЮВ 2 н/о н/о +26.8 +4.0 23 +26 +26 жарко 1009.5 983.5 +37.9
15 13.10 С 1 н/о н/о +25.7 +3.6 24 +25 +25 комфорт 1009.1 983.1
17 13.10 СВ 4 н/о н/о +25.2 +3.2 24 +24 +24 комфорт 1008.5 982.5
18 13.10 С 1 н/о н/о +22.6 +3.2 28 +22 +22 комфорт 1008.5 982.5
20 13.10 С 4 н/о н/о +23.3 +12.9 52 +26 +26 жарко 1009.5 983.5
21 13.10 С 3 н/о н/о +22.8 +13.3 55 +26 +26 жарко 1010.2 984.2
23 13.10 С 4 н/о н/о +30.5 +15.0 39 +33 +33 душно 1011.2 985.1
00 14.10 С 4 н/о н/о +34.2 +12.0 26 +34 +34 очень
жарко
1010.9 984.8
02 14.10 С 4 н/о н/о +38.0 +5.9 14 +35 +35 очень
жарко
1009.2 983.2 +22.3
03 14.10 С 3 н/о н/о +38.1 +6.0 14 +35 +35 очень
жарко
1008.2 982.2
05 14.10 ЮЗ 2 н/о н/о +39.5 +4.8 12 +37 +37 очень
жарко
1006.4 980.5
06 14.10 СВ 2 н/о н/о +38.2 +5.0 13 +35 +35 очень
жарко
1006.0 980.1
08 14.10 С 3 н/о н/о +38.4 +6.2 14 +36 +36 очень
жарко
1006.4 980.5
09 14.10 СВ 3 н/о н/о +35.8 +5.1 15 +33 +33 жарко 1007.1 981.1
11 14.10 СВ 4 н/о н/о +32.8 +6.2 19 +31 +31 жарко 1008.5 982.5
12 14.10 СВ 4 н/о н/о +31.8 +6.1 20 +30 +30 жарко 1008.9 982.9
14 14.10 С 5 н/о н/о +31.2 +15.2 38 +34 +34 душно 1009.2 983.2 +40.3
15 14.10 С 5 н/о н/о +30.2 +16.2 43 +33 +33 душно 1008.9 982.9
17 14.10 С 5 н/о н/о +28.5 +17.7 52 +33 +33 очень
душно
1008.2 982.2
18 14.10 С 3 н/о н/о +27.4 +17.8 56 +32 +32 очень
душно
1008.3 982.3
20 14.10 С 3 н/о н/о +25.7 +16.5 57 +29 +29 душно 1009.2 983.2
21 14.10 С 3 н/о н/о +25.8 +16.9 58 +30 +30 душно 1009.9 983.9
23 14.10 С 5 н/о н/о +32.7 +11.8 28 +33 +33 жарко 1010.9 984.8
00 15.10 З 6 н/о н/о +34.5 +12.2 26 +35 +35 очень
жарко
1011.8 985.7
02 15.10 ЮЗ 6 н/о н/о +36.1 +11.7 23 +36 +36 очень
жарко
1010.4 984.4 +25.4
03 15.10 ЮЗ 7 н/о н/о +36.1 +12.3 24 +36 +36 очень
жарко
1010.1 984.1
05 15.10 С 2 н/о н/о +36.0 +10.9 22 +35 +35 очень
жарко
1009.0 983.0
06 15.10 В 3 н/о н/о +37.4 +12.1 22 +37 +37 очень
жарко
1008.3 982.3
08 15.10 СВ 4 н/о н/о +35.0 +12.0 25 +35 +35 очень
жарко
1008.3 982.3
09 15.10 С 3 н/о н/о +33.2 +13.3 30 +34 +34 очень
жарко
1008.8 982.8
11 15.10 СВ 8 н/о н/о +28.3 +16.6 49 +32 +32 душно 1010.5 984.5
12 15.10 СВ 8 н/о н/о +27.1 +17.8 57 +32 +32 очень
душно
1011.5 985.4
14 15.10 СВ 6 н/о н/о +26.5 +16.1 53 +30 +30 душно 1011.0 984.9 +39.2
15 15.10 СВ 4 н/о н/о +25.9 +16.7 57 +30 +30 душно 1009.8 983.8
17 15.10 СВ 3 н/о н/о +25.4 +16.8 59 +29 +29 душно 1008.6 982.6
18 15.10 В 3 н/о н/о +25.3 +16.7 59 +29 +29 душно 1009.6 983.6
20 15.10 Ю 6 н/о туман н/о +21.4 +19.1 87 +26 +26 душно 1013.0 986.9
21 15.10 Ю 6 н/о н/о +20.2 +19.7 97 +24 +24 комфорт 1015.6 989.4
23 15.10 ЮВ 5 н/о туман местами н/о +20.1 +19.8 98 +24 +24 комфорт 1016.8 990.6
00 16.10 В 6 н/о н/о +19.9 +18.7 93 +23 +23 комфорт 1016.4 990.2
02 16.10 СВ 5 н/о {туман} н/о +21.7 +19.4 87 +27 +27 душно 1013.7 987.6 +19.6
03 16.10 В 4 н/о н/о +24.2 +20.3 79 +30 +30 очень
душно
1012.2 986.1
05 16.10 Ю 2 н/о {туман} н/о +29.7 +19.7 55 +36 +36 очень
душно
1010.3 984.3
06 16.10 Ю 4 н/о н/о +30.6 +18.7 49 +36 +36 очень
душно
1009.8 983.8
08 16.10 ЮВ 2 н/о н/о +30.5 +17.6 46 +35 +35 очень
душно
1010.5 984.5
09 16.10 ЮВ 4 н/о н/о +27.9 +20.2 63 +34 +34 очень
душно
1011.6 985.5
11 16.10 ЮВ 3 н/о н/о +25.9 +20.5 72 +32 +32 очень
душно
1012.9 986.8
12 16.10 ЮВ 2 н/о н/о +25.1 +21.2 79 +32 +32 очень
душно
1013.2 987.1
14 16.10 СВ 3 н/о н/о +24.6 +19.9 75 +30 +30 очень
душно
1012.9 986.8 +31.2
15 16.10 ЮВ 1 н/о н/о +23.0 +20.5 86 +30 +30 очень
душно
1012.8 986.7
17 16.10 Ю 3 н/о н/о +22.0 +20.1 89 +28 +28 душно 1012.9 986.8
18 16.10 Ю 6 н/о н/о +23.0 +12.3 51 +26 +26 жарко 1012.8 986.7
20 16.10 Ю 4 н/о н/о +20.2 +10.9 55 +22 +22 комфорт 1014.2 988.1
21 16.10 Ю 3 н/о н/о +20.0 +11.2 57 +22 +22 комфорт 1014.9 988.7
23 16.10 ЮВ 9 н/о н/о +24.9 +6.1 30 +25 +25 комфорт 1015.8 989.6
00 17.10 ЮВ 8 н/о н/о +26.5 +5.5 26 +26 +26 жарко 1015.7 989.5
02 17.10 ЮВ 7 н/о н/о +29.3 +6.0 23 +28 +28 жарко 1014.2 988.1 +19.4
03 17.10 ЮВ 6 н/о н/о +31.1 +6.9 22 +30 +30 жарко 1012.9 986.8
05 17.10 Ю 7 н/о н/о +32.6 +6.7 20 +31 +31 жарко 1010.8 984.7
06 17.10 Ю 6 н/о н/о +32.4 +8.0 22 +31 +31 жарко 1010.1 984.1
08 17.10 Ю 6 н/о н/о +32.0 +7.6 22 +31 +31 жарко 1010.3 984.3
09 17.10 Ю 4 н/о н/о +29.8 +8.8 27 +29 +29 жарко 1011.3 985.2
11 17.10 Ю 4 н/о н/о +25.9 +9.3 35 +26 +26 жарко 1012.4 986.3
12 17.10 Ю 4 н/о н/о +24.9 +10.0 39 +26 +26 жарко 1012.5 986.4
14 17.10 Ю 5 н/о н/о +24.7 +6.4 31 +25 +25 комфорт 1012.3 986.2 +33.8
15 17.10 Ю 5 н/о н/о +23.8 +4.7 29 +24 +24 комфорт 1012.0 985.9

 

Местоположение метеостанции Camooweal Township (Квинсленд, Австралия): широта -19.91 долгота 138.11 высота над уровнем моря 231 м.

В архиве по умолчанию представлена погода в Camooweal Township за последнюю неделю. Архивные данные за месяц целиком и за предыдущие месяцы, начиная с января 2011 года, Вы можете получить, выбрав интересующий диапазон дат из раскрывающегося списка и нажав кнопку "Ввод!".


*Определитесь, кто Вы:
робот инопланетянин человек

Внимание! Время в таблицах - всемирное. Для получения местного времени необходимо прибавить поправку, которая в Camooweal Township равна 10 ч.

Смотрите также архив погоды в соседних городах и на ближайших метеорологических станциях:

Погода в Century Mine (Квинсленд, Австралия) (143 км)
Погода в New May Downs (Квинсленд, Австралия) (149 км)
Погода в Mount Isa (Квинсленд, Австралия) (167 км)
Погода в Lake Julius Aws (Квинсленд, Австралия) (171 км)
Погода в Cloncurry Composite (Квинсленд, Австралия) (263 км)
Погода в Phosphate Hill Airport (Квинсленд, Австралия) (282 км)
Погода в Burketown Airport (Квинсленд, Австралия) (283 км)
Погода в Trepell Airport (Квинсленд, Австралия) (358 км)
Погода в Mornington Island (Квинсленд, Австралия) (378 км)
Погода в Julia Creek Airport (Квинсленд, Австралия) (387 км)

Пояснения к столбцам:

Ветер - указаны скорость ветра в м/с - средняя за 10 мин, порывы в срок и между сроками (в фигурных скобках) и направление, откуда дует ветер: С - северный, СВ - северо-восточный, В - восточный, ЮВ - юго-восточный, Ю - южный, ЮЗ - юго-западный, З - западный, СЗ - северо-западный.
Видимость - горизонтальная дальность видимости в метрах или километрах. При видимости от 1 до 10 км при отсутствии осадков обычно наблюдается дымка, при ухудшении видимости до 1 км и менее - туман. В сухую погоду видимость может ухудшаться дымом, пылью или мглою.
Явления - указаны атмосферные явления, наблюдавшиеся в срок или в последний час перед сроком; фигурными скобками обозначены явления, наблюдавшиеся между сроками (за 1-3 часа до срока); квадратными скобками обозначены град или гололедные отложения с указанием их диаметра в мм.
Облачность - указаны через наклонную черту общая и нижняя облачность в баллах и высота нижней границы облаков в метрах; квадратными скобками обозначены формы облаков: Ci - перистые, Cs - перисто-слоистые, Cc - перисто-кучевые, Ac - высококучевые, As - высокослоистые, Sc - слоисто-кучевые, Ns - слоисто-дождевые, Cu - кучевые, Cb - кучево-дождевые. Подробнее классификацию облаков см. в Атласе облаков (PDF).
T - Температура воздуха - температура, измеренная на высоте 2 м над землей.
Td - Температура точки росы - температура, при понижении до которой содержащийся в воздухе водяной пар достигнет насыщения.
f - Относительная влажность воздуха - влажноcть воздуха, измеренная на высоте 2 м над землей.
Te - Эффективная температура - температура, которую ощущает одетый по сезону человек в тени. Характеристика душности погоды. При расчете учитывается влияние влажности воздуха и скорости ветра на теплоощущения человека.
Tes - Эффективная температура на солнце - температура, которую ощущает человек, с поправкой на солнечный нагрев. Характеристика знойности погоды. Зависит от высоты солнца над горизонтом, облачности и скорости ветра. Ночью, в пасмурную погоду, а также при ветре 12 м/с и более поправка равна нулю.
P - Атмосферное давление - приведенное к уровню моря атмосферное давление.
Po - Атмосферное давление - измеренное на уровне метеостанции атмосферное давление.
Tmin - Минимальная температура - минимум температуры воздуха на высоте 2 м над землей.
Tmax - Максимальная температура - максимум температуры воздуха на высоте 2 м над землей.
R - Количество осадков - Количество выпавших осадков за период времени, мм. При наведении курсора мыши на число - период времени, за который выпало указанное количество осадков.
R24 - Количество осадков - Количество выпавших осадков за 24 часа, мм.
S - Снежный покров - Высота снежного покрова, см. При наведении курсора мыши на число - состояние снежного покрова и степень покрытия местности в баллах.